[[{"header":{"parameterUnit":"m.s-1","parameterCategory":1,"la1":30.2991,"la2":30.254,"lo1":-89.0895,"lo2":-89.0444,"dy":0.0017,"dx":0.0017,"nx":28,"ny":28,"refTime":"2026-02-08T09:00:00:Z","depth":0,"parameterNumber":2,"parameterNumberName":"U-component_of_WINDS"},"data":[0,0,0,0,0,0,0,0,0,0,0,0,0,0,0,0,0,0,0,0,0,0,0,0,0,0,0,0,0,0,0,0,0,0,0,0,0,0,0,0,0,0,0,0,0,0,0,0,0,0,0,0,0,0,0,0,0,0,1.2455,1.2455,0,1.2495,1.2495,1.2496,1.2471,1.2469,1.2468,1.2467,1.2511,1.2514,1.2516,0,0,0,0,0,0,0,0,0,0,0,0,0,1.2359,1.2361,1.2455,1.2455,1.2456,1.2495,1.2495,1.2496,1.2471,1.2469,1.2468,1.2467,1.2511,1.2513,1.2516,0,0,0,0,0,0,0,0,0,0,0,0,0,1.24,1.2362,1.2455,1.2448,1.2448,1.2495,1.2496,1.2496,1.2471,1.2469,1.2468,1.2466,1.251,1.2513,1.2517,1.2574,0,0,1.2527,1.2529,0,0,0,0,0,0,0,0,1.2398,1.2404,1.2448,1.2448,1.2448,1.2476,1.2478,1.2522,1.2472,1.2462,1.2467,1.2465,1.2501,1.2505,1.2517,1.2576,1.2578,1.2527,1.2529,1.2531,1.2532,0,0,0,0,0,0,0,1.2395,1.2402,1.2471,1.2449,1.2449,1.2444,1.2448,1.2486,1.2491,1.2463,1.2461,1.2466,1.2501,1.2514,1.2518,1.2578,1.2527,1.253,1.2532,1.2534,1.2688,1.269,0,0,0,0,0,0,1.2392,1.24,1.2469,1.2472,1.2418,1.2447,1.2451,1.2469,1.2491,1.2492,1.2468,1.2465,1.2509,1.2514,1.2519,1.2589,1.2531,1.2534,1.2536,1.2686,1.2689,1.2691,0,0,0,0,0,0,1.239,1.2399,1.2468,1.2435,1.2444,1.245,1.247,1.2471,1.2483,1.2494,1.2496,1.248,1.2507,1.2514,1.2561,1.259,1.2536,1.2539,1.2684,1.2687,1.269,1.2729,0,0,0,0,0,0,1.2388,1.2398,1.2419,1.2436,1.2446,1.2508,1.2472,1.2473,1.2489,1.2486,1.2506,1.2508,1.2507,1.2556,1.2564,1.2594,1.2541,1.2681,1.2685,1.2689,1.2725,1.2733,1.274,0,0,0,0,0,1.2384,1.2429,1.242,1.2429,1.2472,1.2509,1.2515,1.2512,1.2491,1.2513,1.2521,1.2507,1.2585,1.2561,1.257,1.2601,1.2679,1.2684,1.2689,1.2722,1.2731,1.2739,0,0,0,0,0,0,1.2416,1.2431,1.2422,1.2472,1.249,1.2505,1.2532,1.2522,1.2546,1.2542,1.2538,1.2543,1.2592,1.2601,1.2573,1.2659,1.2629,1.2636,1.2651,1.2661,1.2668,1.2665,1.2544,0,0,0,0,0,1.2429,1.2457,1.2469,1.2513,1.2522,1.2526,1.2542,1.2538,1.2556,1.2564,1.2574,1.2593,1.2622,1.2642,1.2669,1.2726,1.2731,1.2752,1.2759,1.2765,1.2772,1.2804,1.2815,1.2706,1.2706,1.2706,0,0,1.2456,1.2467,1.2486,1.2519,1.2532,1.2563,1.2532,1.2565,1.2589,1.2569,1.2614,1.2622,1.2643,1.2695,1.2719,1.2705,1.2803,1.2771,1.2776,1.2779,1.281,1.2821,1.283,1.2709,1.2709,1.2708,0,0,1.2521,1.2532,1.257,1.2584,1.2604,1.2606,1.2615,1.2632,1.2637,1.2681,1.2668,1.2696,1.2745,1.2762,1.2776,1.2848,1.2838,1.2857,1.2896,1.2928,1.2937,1.2945,1.2972,1.2982,1.2863,1.2863,1.2864,0,1.2553,1.2597,1.2592,1.2627,1.2643,1.2625,1.2665,1.2679,1.2707,1.2719,1.2702,1.2765,1.2778,1.2835,1.2852,1.2864,1.2876,1.2856,1.2936,1.2944,1.2951,1.2977,1.2987,1.2866,1.2866,1.2865,1.2865,0,1.2636,1.2667,1.2696,1.2723,1.2742,1.278,1.2781,1.2801,1.2796,1.2801,1.2847,1.2862,1.2893,1.2905,1.2901,1.2962,1.2953,1.2936,1.2907,1.2964,1.2989,1.2998,1.2869,1.2869,1.2868,1.2867,0,0,1.2723,1.2747,1.2758,1.2771,1.2791,1.2816,1.2853,1.2882,1.2901,1.2921,1.2953,1.2996,1.2981,1.2997,1.2994,1.3022,1.3081,1.3002,1.3003,1.3018,1.3152,1.3166,1.3178,1.3073,1.3075,1.3076,1.3151,0,1.2791,1.2855,1.2852,1.2912,1.2942,1.2926,1.2959,1.2976,1.2982,1.3009,1.3015,1.3046,1.3023,1.3033,1.306,1.3068,1.3108,1.3062,1.3105,1.3107,1.3102,1.319,1.3205,1.3275,1.316,1.3162,1.3163,0,1.2879,1.2902,1.2966,1.2983,1.2996,1.3025,1.3052,1.3078,1.3097,1.3099,1.3119,1.3111,1.315,1.3119,1.3174,1.3143,1.316,1.3167,1.317,1.3175,1.314,1.32,1.3297,1.3308,1.3178,1.3177,1.3176,0,1.2939,1.2986,1.303,1.3041,1.3062,1.3083,1.3093,1.3111,1.3129,1.3153,1.3166,1.3194,1.321,1.3233,1.3235,1.3211,1.3291,1.3259,1.3296,1.3296,1.3315,1.3314,1.3418,1.3323,1.3322,1.3322,1.3322,0,1.3017,1.3057,1.3057,1.3085,1.313,1.3126,1.3171,1.3179,1.3195,1.3225,1.3212,1.3241,1.324,1.3269,1.327,1.3317,1.3324,1.3328,1.3329,1.3331,1.3331,1.3343,1.3339,1.3325,1.3324,1.3324,1.3323,0,1.3092,1.3094,1.3142,1.3157,1.3162,1.3195,1.3209,1.3236,1.324,1.3279,1.3287,1.3294,1.3329,1.3332,1.3371,1.3372,1.3429,1.3423,1.3423,1.3423,1.346,1.3457,1.3577,1.3593,1.3486,1.3487,1.3488,0,1.3142,1.3173,1.3192,1.3211,1.3222,1.3252,1.3271,1.3268,1.3288,1.3313,1.3338,1.337,1.3397,1.3453,1.3462,1.3493,1.3489,1.3529,1.3494,1.3495,1.3492,1.3491,1.3495,1.3536,1.3537,1.3538,1.3539,0,1.3233,1.3232,1.3259,1.3286,1.3309,1.333,1.3351,1.3367,1.3367,1.339,1.3425,1.3445,1.3486,1.3519,1.355,1.3561,1.3552,1.355,1.356,1.3564,1.3563,1.3566,1.3444,1.3548,1.3547,1.3546,1.3546,1.3545,1.3299,1.3326,1.3343,1.3374,1.3389,1.3408,1.3435,1.3442,1.3471,1.3503,1.35,1.3538,1.3559,1.3598,1.3612,1.3643,1.363,1.3645,1.3649,1.3653,1.3658,1.3556,1.3649,1.3648,1.3648,1.3648,1.3648,0,1.339,1.3401,1.3429,1.3457,1.3482,1.3468,1.349,1.3513,1.3546,1.3565,1.3591,1.3632,1.3665,1.3677,1.3709,1.3732,1.3728,1.3741,1.374,1.3744,1.3667,1.3656,1.3743,1.3743,1.3743,1.3743,1.3743,1.3743,1.3441,1.3486,1.3488,1.3541,1.3552,1.3589,1.3603,1.3622,1.3637,1.3683,1.3709,1.3716,1.3733,1.3767,1.3797,1.3799,1.3813,1.3828,1.3829,1.3758,1.3749,1.3739,1.3729,1.383,1.383,1.3903,1.3904,1.3904]},{"header":{"parameterUnit":"m.s-1","parameterCategory":1,"la1":30.2991,"la2":30.254,"lo1":-89.0895,"lo2":-89.0444,"dy":0.0017,"dx":0.0017,"nx":28,"ny":28,"refTime":"2026-02-08T09:00:00:Z","depth":0,"parameterNumber":3,"parameterNumberName":"V-component_of_WINDS"},"data":[0,0,0,0,0,0,0,0,0,0,0,0,0,0,0,0,0,0,0,0,0,0,0,0,0,0,0,0,0,0,0,0,0,0,0,0,0,0,0,0,0,0,0,0,0,0,0,0,0,0,0,0,0,0,0,0,0,0,0.4126,0.4126,0,0.4119,0.4119,0.4119,0.4109,0.4109,0.4109,0.4109,0.4101,0.4101,0.41,0,0,0,0,0,0,0,0,0,0,0,0,0,0.4131,0.4131,0.4126,0.4126,0.4126,0.4119,0.4119,0.4119,0.4109,0.4109,0.4109,0.4109,0.4101,0.4101,0.41,0,0,0,0,0,0,0,0,0,0,0,0,0,0.4127,0.4131,0.4126,0.412,0.412,0.4119,0.4119,0.4119,0.4109,0.4109,0.4109,0.4109,0.4101,0.4101,0.41,0.4104,0,0,0.41,0.41,0,0,0,0,0,0,0,0,0.4127,0.4126,0.4121,0.4121,0.412,0.4115,0.4117,0.4114,0.4109,0.4113,0.4109,0.4108,0.4105,0.4105,0.4104,0.4104,0.4104,0.41,0.41,0.41,0.41,0,0,0,0,0,0,0,0.4127,0.4127,0.4123,0.4121,0.412,0.4118,0.4117,0.4117,0.4111,0.4113,0.4112,0.4111,0.4105,0.4104,0.4104,0.4103,0.41,0.41,0.41,0.41,0.4105,0.4105,0,0,0,0,0,0,0.4128,0.4127,0.4123,0.4123,0.4123,0.4118,0.4117,0.4117,0.4111,0.411,0.4112,0.4111,0.4104,0.4104,0.4103,0.4107,0.41,0.41,0.41,0.4105,0.4105,0.4105,0,0,0,0,0,0,0.4129,0.4128,0.4124,0.4125,0.4124,0.4118,0.4118,0.4117,0.4116,0.411,0.4109,0.4112,0.4104,0.4104,0.4104,0.4107,0.41,0.41,0.4105,0.4105,0.4105,0.4115,0,0,0,0,0,0,0.4129,0.4128,0.413,0.4125,0.4124,0.4125,0.4118,0.4117,0.4116,0.4115,0.411,0.4109,0.4104,0.4104,0.4104,0.4106,0.41,0.4104,0.4105,0.4105,0.4114,0.4115,0.4116,0,0,0,0,0,0.4129,0.4133,0.413,0.413,0.4126,0.4125,0.4124,0.4119,0.4116,0.4117,0.4113,0.4109,0.4106,0.4104,0.4104,0.4106,0.4104,0.4105,0.4105,0.4114,0.4115,0.4116,0,0,0,0,0,0,0.4139,0.4132,0.4129,0.4132,0.4129,0.4123,0.4125,0.4121,0.4119,0.4118,0.4112,0.4111,0.4112,0.4109,0.4107,0.4109,0.4105,0.4105,0.4111,0.4113,0.4114,0.4114,0.41,0,0,0,0,0,0.4141,0.4141,0.4135,0.4138,0.4137,0.4131,0.4131,0.4127,0.4124,0.4122,0.4119,0.4115,0.4114,0.4113,0.4111,0.4114,0.4112,0.4115,0.4116,0.4117,0.4118,0.4118,0.4119,0.4107,0.4107,0.4107,0,0,0.4146,0.4143,0.4143,0.414,0.4137,0.4137,0.413,0.4131,0.413,0.4122,0.4123,0.4119,0.4115,0.4117,0.4117,0.4114,0.412,0.4118,0.4118,0.4118,0.4119,0.412,0.4121,0.4107,0.4107,0.4107,0,0,0.4155,0.4153,0.4155,0.4152,0.4148,0.4144,0.4145,0.414,0.4137,0.4137,0.4131,0.413,0.4128,0.4125,0.4124,0.4131,0.4126,0.413,0.4136,0.4137,0.4138,0.4138,0.4141,0.4141,0.4131,0.4131,0.4131,0,0.4162,0.4162,0.4156,0.4156,0.4155,0.4148,0.4149,0.4147,0.4143,0.4142,0.4139,0.4135,0.4132,0.4132,0.4134,0.4133,0.4133,0.4131,0.4138,0.4139,0.4139,0.4141,0.4142,0.4131,0.4131,0.4131,0.4131,0,0.417,0.417,0.4172,0.4168,0.4167,0.4168,0.4162,0.4161,0.4157,0.4153,0.4153,0.4148,0.4146,0.4145,0.4141,0.4145,0.4143,0.4139,0.4134,0.4141,0.4143,0.4144,0.4132,0.4132,0.4132,0.4132,0,0,0.4186,0.4178,0.4179,0.4177,0.4172,0.4171,0.4171,0.4169,0.4168,0.4165,0.4165,0.4163,0.4159,0.4157,0.4152,0.4153,0.4158,0.4149,0.4148,0.415,0.4161,0.4164,0.4165,0.4155,0.4155,0.4155,0.4161,0,0.4194,0.4194,0.4189,0.4191,0.419,0.4183,0.4183,0.4179,0.4176,0.4174,0.417,0.4168,0.4163,0.4162,0.4162,0.4157,0.416,0.4157,0.4154,0.4154,0.4156,0.4166,0.4169,0.4175,0.4162,0.4162,0.4162,0,0.4204,0.4201,0.4203,0.4197,0.4197,0.4197,0.4194,0.4192,0.4188,0.4185,0.4183,0.4177,0.4177,0.4172,0.417,0.4168,0.4167,0.4164,0.4164,0.4164,0.4159,0.4166,0.4177,0.4178,0.4163,0.4163,0.4163,0,0.4215,0.4212,0.4212,0.4211,0.4204,0.4204,0.4201,0.4197,0.4195,0.4192,0.4191,0.4188,0.4186,0.4183,0.4177,0.4174,0.4176,0.4171,0.4173,0.4173,0.4174,0.4174,0.4185,0.4173,0.4173,0.4173,0.4173,0,0.4225,0.4226,0.4217,0.4218,0.4218,0.4212,0.4213,0.4209,0.4205,0.4204,0.4197,0.4196,0.4188,0.4186,0.4182,0.4181,0.418,0.4177,0.4176,0.4178,0.4178,0.4177,0.4176,0.4173,0.4173,0.4173,0.4173,0,0.4237,0.4232,0.4232,0.4225,0.4223,0.4224,0.4218,0.4218,0.4214,0.4213,0.4212,0.4205,0.4202,0.4196,0.4191,0.4188,0.4188,0.4186,0.419,0.4189,0.4192,0.4191,0.4202,0.4203,0.4191,0.4191,0.4191,0,0.4244,0.4245,0.4238,0.4237,0.4235,0.4233,0.4231,0.4224,0.4223,0.4217,0.4218,0.4214,0.4211,0.4207,0.4201,0.4198,0.4195,0.4199,0.4195,0.4196,0.4195,0.4195,0.4195,0.42,0.42,0.4201,0.4201,0,0.4256,0.4253,0.4251,0.4248,0.4246,0.4243,0.424,0.4239,0.4231,0.423,0.4227,0.4225,0.422,0.4217,0.4212,0.4208,0.4203,0.4202,0.4202,0.4205,0.4207,0.4205,0.4192,0.4202,0.4202,0.4202,0.4202,0.4202,0.4266,0.4266,0.4261,0.4259,0.4256,0.4253,0.4252,0.4247,0.4245,0.4241,0.4237,0.4234,0.4229,0.4222,0.4219,0.4216,0.4213,0.4214,0.4214,0.4214,0.4215,0.4207,0.4215,0.4215,0.4215,0.4215,0.4215,0,0.4278,0.4274,0.4272,0.4268,0.4266,0.4261,0.4257,0.4255,0.4253,0.4249,0.4246,0.4242,0.4239,0.4233,0.4228,0.4227,0.4225,0.4227,0.4227,0.4226,0.4218,0.4218,0.4229,0.4229,0.4229,0.4229,0.4229,0.4229,0.4284,0.4284,0.428,0.4278,0.4274,0.4272,0.427,0.4267,0.4263,0.4259,0.4256,0.4252,0.4247,0.4242,0.4238,0.4236,0.4235,0.4238,0.4235,0.4228,0.4226,0.4225,0.4225,0.4237,0.4237,0.4243,0.4243,0.4243]}]]